(432) Pythia
ephemeris date magn radius delta ra dec elong phase
Today17 Jun 202614.42.480 AU3.102 AU08h56m+25°47'44.4°16.7°
Opposition7 Jun 202710.92.029 AU1.017 AU17h06m-17°45'174.8°2.6°
(432) Pythia - 2026-06-17
astro.vanbuitenen.nl


 
-1 year
-1 month
-1 day
Now
+1 day
+1 month
+1 year

The interactive orbit chart above shows the body's path through the solar system and its position at the given date. Green and blue lines are shown perpendicular to the ecliptic plane: Green if the path is above the ecliptic plane, blue if it is below. (Left-click and drag to rotate the view; Right-click and drag to move the view; Use scroll wheel to zoom in our out.)

The orbital elements of Pythia are:

            e (Eccentricity)                : 0.1445566
            a (Semimajor axis)              : 2.3702996
            i (Inclination)                 : 12.11123
            Ω (Longitude of ascending node) : 88.71062
            ω (Argument of perihelion)      : 174.29738
            M (Mean anomaly)                : 256.98791
            Epoch                           : 2026 Jun 09

            L (Longitude of perihelion)     : 83.13412
            B (Latitude of perihelion)      : 1.19458
            P (Orbital period in years)     : 3.65            
        

The light curve chart below shows the estimated development of the minor planet's magnitude.


The all-sky chart below shows the path of the minor planet over the same period as the light curve. The current position is marked yellow.





The following chart shows the path of the minor planet in the next few days. The field of view is optimized for (~10x50) binoculars and finderscopes.




Ephemerides:
Date       Time       RA (2000)    DEC (2000)    delta   radius  elong  phase   PA    magn
2026-06-17 00:00 UT   08 56 27.2   +25 47 38     3.102    2.480   44.4   16.7    98   14.4 
2026-06-17 03:32 UT   08 56 42.3   +25 46 38     3.103    2.480   44.3   16.6    98   14.4 
2026-06-18 00:00 UT   08 58 09.9   +25 40 45     3.109    2.479   43.9   16.5    98   14.4 
2026-06-19 00:00 UT   08 59 52.9   +25 33 47     3.116    2.477   43.3   16.3    98   14.4 
2026-06-20 00:00 UT   09 01 36.1   +25 26 45     3.123    2.476   42.8   16.2    98   14.4 
2026-06-21 00:00 UT   09 03 19.5   +25 19 38     3.130    2.474   42.3   16.0    98   14.4 
2026-06-22 00:00 UT   09 05 03.1   +25 12 28     3.137    2.473   41.7   15.9    98   14.4 
2026-06-23 00:00 UT   09 06 46.9   +25 05 13     3.143    2.471   41.2   15.7    98   14.4 
2026-06-24 00:00 UT   09 08 30.9   +24 57 54     3.150    2.470   40.7   15.6    98   14.4 
2026-06-25 00:00 UT   09 10 15.1   +24 50 31     3.156    2.468   40.2   15.4    97   14.4 
2026-06-26 00:00 UT   09 11 59.5   +24 43 04     3.163    2.467   39.6   15.2    97   14.4 
2026-06-27 00:00 UT   09 13 44.0   +24 35 32     3.169    2.465   39.1   15.1    97   14.4 
2026-06-28 00:00 UT   09 15 28.7   +24 27 57     3.175    2.464   38.6   14.9    97   14.4 
2026-06-29 00:00 UT   09 17 13.6   +24 20 17     3.181    2.462   38.1   14.8    97   14.4 
2026-06-30 00:00 UT   09 18 58.6   +24 12 34     3.187    2.461   37.6   14.6    97   14.4 
2026-07-01 00:00 UT   09 20 43.8   +24 04 46     3.193    2.459   37.1   14.4    97   14.4 
2026-07-02 00:00 UT   09 22 29.1   +23 56 54     3.199    2.458   36.5   14.3    97   14.4 
2026-07-03 00:00 UT   09 24 14.6   +23 48 58     3.205    2.456   36.0   14.1    97   14.4 
2026-07-04 00:00 UT   09 26 00.2   +23 40 59     3.210    2.455   35.5   13.9    97   14.3 
2026-07-05 00:00 UT   09 27 46.0   +23 32 55     3.216    2.453   35.0   13.8    97   14.3 
2026-07-06 00:00 UT   09 29 31.9   +23 24 47     3.221    2.452   34.5   13.6    97   14.3 
2026-07-07 00:00 UT   09 31 17.9   +23 16 35     3.226    2.450   34.0   13.4    96   14.3 


    Terminology:
            
    delta:  distance between minor planet and earth in AU
    radius: distance between minor planet and sun in AU
    magn:   magnitude (brightness) estimate    
    ra:     right ascension in hours (24h = 360deg)
    dec:    declination in degrees
    elong:  elongation in degrees (angle sun-earth-minor planet)    
    phase:  phase angle in degrees (angle sun-minor planet-earth)        
    AU:     Astronomical Unit (mean distance between earth and sun: 149597870.7 km
    

Orbital elements provided by the MPC (Minor Planet Center).
Calculations by a modified version of AAPlus, a C# implementation of the AA+ project by PJ Naughter from the algorithms presented in the book "Astronomical Algorithms" by Jean Meeus.
NGC2000 dso catalog and star labels from VizieR as provided by the Strasbourg astronomical Data Center.
Tycho2 catalog from the ESO archive.